Location: Leiter
(44.7178°N, 106.2687°W)
Time: 07:12:10
(UTC+00:00)

DX 1 - Pass Details

Date: 03 July 2022
Orbit: 616 x 630 km, 98.4° (Epoch: 17 August)

Event Time Altitude Azimuth Distance (km) Brightness Sun altitude
Rises 05:23:50 0° 1° (N) 2,931 ? -18.2°
Reaches altitude 10° 05:26:25 10° 346° (NNW) 2,017 ? -18.4°
Maximum altitude 05:29:48 22° 296° (WNW) 1,366 ? -18.6°
Drops below altitude 10° 05:33:10 10° 245° (WSW) 2,001 ? -18.9°
Enters shadow 05:35:41 - 230° (SW) 2,887 ? -19.0°
